Regional Weather Roundup
Issued by NWS

Home | Current Version | Previous Version | Graphics & Text | Print | Product List | Glossary On
Versions: 1 2 3 4 5 6 7 8 9 10 11 12 13 14 15 16 17 18 19 20 21 22 23 24 25 26 27 28 29 30 31 32 33 34 35 36 37 38 39 40 41 42 43 44 45 46 47 48 49 50
000
ASUS43 KOAX 041210
RWRNE

WEATHER ROUNDUP FOR NEBRASKA
NATIONAL WEATHER SERVICE OMAHA NE
700 AM CDT SAT JUL 04 2015

NOTES: SATELLITE DATA IS BEING USED TO AUGMENT CLOUD COVER ABOVE
       12000 FEET.
       "FAIR" INDICATES FEW OR NO CLOUDS BELOW 12,000 FEET WITH NO
       SIGNIFICANT WEATHER AND/OR OBSTRUCTIONS TO VISIBILITY.

  * THESE STATIONS DO NOT REPORT WEATHER SUCH AS RAIN...SNOW OR FOG.

NEZ001>004-019>022-054>056-041300-
NEBRASKA PANHANDLE

CITY           SKY/WX    TMP DP  RH WIND       PRES   REMARKS
SCOTTSBLUFF    PTCLDY    65  60  84 E10       29.94F
6HR MIN TEMP:  65; 6HR MAX TEMP:  72;

ALLIANCE       PTCLDY    63  60  90 S12       29.95F
6HR MIN TEMP:  62; 6HR MAX TEMP:  66;

CHADRON        CLEAR     68  60  75 VRB5      29.90R
6HR MIN TEMP:  67; 6HR MAX TEMP:  73;

KIMBALL          N/A    N/A N/A N/A MISG        N/A
SIDNEY         MOCLDY    64  60  87 S12       29.99F
6HR MIN TEMP:  63; 6HR MAX TEMP:  69;

$$

NEZ057>060-069>072-079>082-041300-
SOUTHWEST NEBRASKA

CITY           SKY/WX    TMP DP  RH WIND       PRES   REMARKS
NORTH PLATTE   PTCLDY    63  59  87 E6        29.99S
6HR MIN TEMP:  61; 6HR MAX TEMP:  67;

IMPERIAL       PTCLDY    63  58  83 SE6       29.98S
6HR MIN TEMP:  63; 6HR MAX TEMP:  68;

LEXINGTON      PTCLDY    64  62  93 SE9       30.01R FOG
MCCOOK         CLEAR     62  59  90 E6        29.99S FOG
6HR MIN TEMP:  62; 6HR MAX TEMP:  67;

OGALLALA       PTCLDY    65  60  83 E6        29.98S
$$

NEZ005>010-023>029-035>040-094-041300-
NORTH CENTRAL NEBRASKA

CITY           SKY/WX    TMP DP  RH WIND       PRES   REMARKS
VALENTINE      MOCLDY    65  60  84 S9        29.94S
6HR MIN TEMP:  61; 6HR MAX TEMP:  67;

AINSWORTH      MOCLDY    64  62  94 S8        29.96F
BROKEN BOW     PTCLDY    62  60  93 SE3       29.99F FOG
6HR MIN TEMP:  59; 6HR MAX TEMP:  65;

O`NEILL          N/A     63  62  97 S5        29.98S FOG
ORD            CLEAR     59  58  96 S3        29.99S FOG
6HR MIN TEMP:  53; 6HR MAX TEMP:  64;

THEDFORD       MOCLDY    64  61  90 S10       29.98F
$$

NEZ041-046>049-061>064-073>077-083>087-041300-
SOUTH CENTRAL NEBRASKA

CITY           SKY/WX    TMP DP  RH WIND       PRES   REMARKS
GRAND ISLAND   CLEAR     61  59  93 S5        30.01R FOG
6HR MIN TEMP:  60; 6HR MAX TEMP:  65;

AURORA         CLEAR     59  59 100 CALM      30.01S FOG
HASTINGS       CLEAR     63  60  90 S6        30.01R
6HR MIN TEMP:  62; 6HR MAX TEMP:  67;

HEBRON         CLEAR     59  57  92 CALM      30.01R FOG
HOLDREGE       CLEAR     59  57  94 CALM      30.02R FOG
KEARNEY *      CLEAR     59  55  88 CALM      30.02R
YORK           CLEAR     61  59  94 CALM      30.02S
$$

NEZ011>018-030>034-042>045-041300-
NORTHEAST NEBRASKA

CITY           SKY/WX    TMP DP  RH WIND       PRES   REMARKS
NORFOLK        CLEAR     58  56  93 CALM      29.99F FOG
6HR MIN TEMP:  56; 6HR MAX TEMP:  63;

ALBION         CLEAR     56  54  92 CALM      30.01R FOG
BLAIR          CLEAR     59  55  85 CALM      30.01R FOG
COLUMBUS *       N/A     55  52  88 CALM      29.99S VSB<1/4
FREMONT        CLEAR     61  58  90 CALM      30.01R FOG
TEKAMAH        CLEAR     56  54  93 S5        30.00R FOG
6HR MIN TEMP:  54; 6HR MAX TEMP:  59;

WAYNE            N/A     57  56  99 CALM      30.00R FOG
$$

NEZ050>053-065>068-078-088>093-041300-
SOUTHEAST NEBRASKA

CITY           SKY/WX    TMP DP  RH WIND       PRES   REMARKS
LINCOLN        CLEAR     60  58  92 N3        30.01R FOG
6HR MIN TEMP:  58; 6HR MAX TEMP:  67;

OMAHA EPPLEY   CLEAR     58  56  93 CALM      30.00R FOG
6HR MIN TEMP:  56; 6HR MAX TEMP:  64;

BEATRICE       CLEAR     58  57  94 CALM      30.01R
FALLS CITY     CLEAR     59  58  96 CALM      29.99S
6HR MIN TEMP:  58; 6HR MAX TEMP:  65; 6HR PCP: TRACE;

NEBRASKA CITY  CLEAR     58  56  94 CALM      30.01R
PLATTSMOUTH    CLEAR     59  56  91 CALM      30.01R
$$

NEZ044-045-051>053-067-041300-
OMAHA AREA

CITY           SKY/WX    TMP DP  RH WIND       PRES   REMARKS
OMAHA EPPLEY   CLEAR     58  56  93 CALM      30.00R FOG
6HR MIN TEMP:  56; 6HR MAX TEMP:  64;

BLAIR          CLEAR     59  55  85 CALM      30.01R FOG
FREMONT        CLEAR     61  58  90 CALM      30.01R FOG
MILLARD        FOG       58  57  97 CALM      30.01R VSB 1
OFFUTT AFB     CLEAR     54  54  99 CALM      30.00R
PLATTSMOUTH    CLEAR     59  56  91 CALM      30.01R
WAHOO          FAIR      60  58  94 CALM      30.01R FOG
$$


USA.gov is the U.S. government's official web portal to all federal, state and local government web resources and services.